Location: Newark
(52.2583°N, 7.1190°W)
Time: 18:23:04
(UTC+00:00)

S-56A Canister/Altair - Pass Details

Date: 24 November 2019
Orbit: 633 x 2499 km, 38.9° (Epoch: 10 December)

Event Time Altitude Azimuth Distance (km) Brightness Sun altitude
Rises 20:51:33 0° 267° (W) 4,483 12.2 -39.8°
Reaches altitude 10° 20:56:39 10° 244° (WSW) 3,066 11.0 -40.5°
Enters shadow 20:59:09 13° 225° (SW) 2,608 10.4 -40.9°
